Regional Weather Roundup
Issued by NWS Goodland, KS

Home | Current Version | Previous Version | Graphics & Text | Print | Product List | Glossary On
Versions: 1 2 3 4 5 6 7 8 9 10 11 12 13 14 15 16 17 18 19 20 21 22 23 24 25 26 27 28 29 30 31 32 33 34 35 36 37 38 39 40 41 42 43 44 45 46 47 48 49 50
000
ASUS43 KGLD 270959
RWRGLD

GOODLAND FORECAST AREA HOURLY WEATHER ROUNDUP
NATIONAL WEATHER SERVICE GOODLAND KS
400 AM MDT MON APR 27 2015

...OFFICIAL OBSERVATIONS...

CITY           SKY/WX    TMP DP  RH WIND       PRES   REMARKS
GOODLAND KS    CLOUDY    44  43  96 NE12      30.11R
HILL CITY KS   CLOUDY    44  38  79 NE6       30.11R
IMPERIAL NEB   CLOUDY    46  41  82 NE7       30.14R
MCCOOK NEB     PTCLDY    41  37  86 NE6       30.12R
AKRON CO       CLOUDY    41  41 100 E9        30.13R FOG
BURLINGTON CO  CLOUDY    43  41  93 NE14      30.10R FOG
LIMON CO       LGT RAIN  34  33  96 N12       30.10S
$$

...UNOFFICIAL OBSERVATIONS...

CITY           SKY/WX    TMP DP  RH WIND       PRES   REMARKS
COLBY KS       CLOUDY    45  45 100 N9        30.13R FOG
GOVE KS          N/A     47  32  56 MISG        N/A
LENORA KS        N/A     41  32  70 MISG        N/A
NORTON KS      CLEAR     39  36  87 CALM      30.11R
SHARON SPRINGS   N/A     43  42  97 N12         N/A
TRIBUNE KS     CLOUDY    45  45 100 NE13      30.08R
KIT CARSON CO    N/A     42  40  91 MISG        N/A
$$



USA.gov is the U.S. government's official web portal to all federal, state and local government web resources and services.